TIANTONG-1 1

Last updated on Thu Nov 21 2024 00:02:43 GMT+0000 (Coordinated Universal Time)

1 41725U 16048A 24325.64820617 -.00000317 00000+0 00000+0 0 9998 2 41725 2.8515 34.1324 0005688 273.0162 87.7547 1.00269311 30517
UTC large
Height (km)
Speed (km/s)
/
Latitude / Longitude
Inclination (degrees)
Orbital Period (minutes)
Azimuth
Elevation
Range (km)
Doppler Factor

Next 0 passes for location: London (51.5072 / 0.1276)

Sorry there are no passes over London.